[[{"header":{"parameterUnit":"m.s-1","parameterCategory":1,"la1":30.2991,"la2":30.254,"lo1":-89.0895,"lo2":-89.0444,"dy":0.0017,"dx":0.0017,"nx":28,"ny":28,"refTime":"2024-02-22T03:00:00:Z","depth":0,"parameterNumber":2,"parameterNumberName":"U-component_of_WINDS"},"data":[0,0,0,0,0,0,0,0,0,0,0,0,0,0,0,0,0,0,0,0,0,0,0,0,0,0,0,0,0,0,0,0,0,0,0,0,0,0,0,0,0,0,0,0,0,0,0,0,0,0,0,0,0,0,0,0,0,0,-1.9834,-1.9834,0,-1.9842,-1.9842,-1.9842,-1.9818,-1.9817,-1.9816,-1.9816,-1.9823,-1.9824,-1.9825,0,0,0,0,0,0,0,0,0,0,0,0,0,-1.9798,-1.9799,-1.9834,-1.9834,-1.9834,-1.9842,-1.9842,-1.9842,-1.9818,-1.9817,-1.9816,-1.9815,-1.9823,-1.9824,-1.9825,0,0,0,0,0,0,0,0,0,0,0,0,0,-1.9811,-1.9799,-1.9834,-1.9823,-1.9822,-1.9842,-1.9842,-1.9842,-1.9818,-1.9817,-1.9816,-1.9815,-1.9822,-1.9824,-1.9825,-1.9855,0,0,-1.9829,-1.983,0,0,0,0,0,0,0,0,-1.981,-1.9812,-1.9825,-1.9824,-1.9823,-1.9828,-1.9832,-1.9847,-1.9818,-1.982,-1.9816,-1.9814,-1.9825,-1.9826,-1.983,-1.9856,-1.9856,-1.9829,-1.983,-1.983,-1.9831,0,0,0,0,0,0,0,-1.9809,-1.9811,-1.9837,-1.9825,-1.9824,-1.9818,-1.9818,-1.9835,-1.9829,-1.9819,-1.9818,-1.9819,-1.9825,-1.9829,-1.983,-1.9856,-1.9829,-1.983,-1.9831,-1.9832,-1.9907,-1.9908,0,0,0,0,0,0,-1.981,-1.9811,-1.9837,-1.9837,-1.9814,-1.9819,-1.982,-1.9827,-1.9828,-1.9827,-1.982,-1.9818,-1.9827,-1.9829,-1.983,-1.9865,-1.983,-1.9832,-1.9832,-1.9906,-1.9907,-1.9909,0,0,0,0,0,0,-1.9809,-1.9812,-1.9837,-1.9824,-1.9826,-1.9821,-1.983,-1.9828,-1.9832,-1.9829,-1.9828,-1.9825,-1.9827,-1.9829,-1.9849,-1.9865,-1.9832,-1.9833,-1.9904,-1.9906,-1.9908,-1.9936,0,0,0,0,0,0,-1.9808,-1.9812,-1.9823,-1.9824,-1.9827,-1.9855,-1.9831,-1.9829,-1.9835,-1.9832,-1.9834,-1.9833,-1.9826,-1.9848,-1.9851,-1.9866,-1.9834,-1.9903,-1.9905,-1.9907,-1.9933,-1.9938,-1.9943,0,0,0,0,0,-1.9807,-1.9831,-1.9824,-1.9827,-1.9841,-1.9856,-1.9858,-1.985,-1.9836,-1.9847,-1.9846,-1.9833,-1.9864,-1.985,-1.9853,-1.987,-1.9902,-1.9905,-1.9907,-1.9931,-1.9937,-1.9943,0,0,0,0,0,0,-1.9831,-1.983,-1.9823,-1.9848,-1.9852,-1.9852,-1.9866,-1.9856,-1.9864,-1.9861,-1.9851,-1.9851,-1.9874,-1.9874,-1.9859,-1.9899,-1.988,-1.9884,-1.9898,-1.9903,-1.9908,-1.9906,-1.9836,0,0,0,0,0,-1.9839,-1.9852,-1.9851,-1.9873,-1.9875,-1.9871,-1.9877,-1.987,-1.9874,-1.9876,-1.9875,-1.988,-1.989,-1.9897,-1.9907,-1.9935,-1.9934,-1.9948,-1.9952,-1.9956,-1.9958,-1.9973,-1.9978,-1.9917,-1.9917,-1.9917,0,0,-1.9856,-1.9858,-1.9866,-1.9878,-1.988,-1.9893,-1.9872,-1.9887,-1.9896,-1.9878,-1.9897,-1.9897,-1.9902,-1.9926,-1.9936,-1.9927,-1.9976,-1.996,-1.9963,-1.9963,-1.9976,-1.9982,-1.9987,-1.9919,-1.9919,-1.9919,0,0,-1.9893,-1.9896,-1.9914,-1.9918,-1.9923,-1.992,-1.9924,-1.9926,-1.9925,-1.9945,-1.9932,-1.9944,-1.9962,-1.9966,-1.997,-2.0011,-1.9999,-2.0015,-2.0038,-2.0052,-2.0056,-2.0061,-2.0074,-2.0079,-2.0018,-2.0018,-2.0018,0,-1.9913,-1.9932,-1.9925,-1.994,-1.9946,-1.9932,-1.995,-1.9954,-1.9962,-1.9966,-1.9956,-1.9979,-1.9981,-2.0006,-2.0016,-2.0021,-2.0025,-2.0013,-2.0056,-2.0061,-2.0064,-2.0077,-2.0082,-2.0019,-2.0019,-2.0019,-2.0019,0,-1.9956,-1.997,-1.9984,-1.9992,-2.0,-2.0017,-2.0012,-2.0021,-2.0015,-2.0013,-2.0033,-2.0036,-2.0046,-2.0052,-2.0046,-2.0076,-2.0069,-2.0058,-2.0038,-2.0072,-2.0083,-2.0088,-2.0022,-2.0021,-2.0021,-2.002,0,0,-2.0005,-2.0011,-2.0016,-2.002,-2.0025,-2.0035,-2.0053,-2.0063,-2.007,-2.0077,-2.009,-2.0108,-2.0097,-2.0102,-2.0097,-2.011,-2.0141,-2.0097,-2.0097,-2.0103,-2.0173,-2.018,-2.0186,-2.0134,-2.0135,-2.0136,-2.0172,0,-2.004,-2.0068,-2.0064,-2.0091,-2.0104,-2.0092,-2.0107,-2.0112,-2.0112,-2.0122,-2.0122,-2.0134,-2.012,-2.0123,-2.0135,-2.0134,-2.0154,-2.0132,-2.0145,-2.0146,-2.0142,-2.0192,-2.0199,-2.0233,-2.0177,-2.0178,-2.0178,0,-2.0083,-2.0092,-2.0122,-2.0126,-2.0131,-2.0144,-2.0154,-2.0164,-2.017,-2.0169,-2.0176,-2.0169,-2.0186,-2.0168,-2.0191,-2.0176,-2.0182,-2.0183,-2.0184,-2.0183,-2.0162,-2.019,-2.0243,-2.0248,-2.0185,-2.0185,-2.0184,0,-2.0114,-2.0134,-2.0154,-2.0158,-2.0164,-2.0173,-2.0176,-2.0181,-2.0188,-2.0197,-2.0201,-2.0212,-2.0217,-2.0226,-2.0221,-2.0209,-2.0245,-2.0227,-2.0243,-2.0244,-2.0249,-2.0248,-2.0302,-2.0257,-2.0257,-2.0257,-2.0257,0,-2.0152,-2.017,-2.0168,-2.018,-2.02,-2.0195,-2.0215,-2.0217,-2.0222,-2.0234,-2.0225,-2.0237,-2.0232,-2.0243,-2.024,-2.0259,-2.0262,-2.0261,-2.026,-2.026,-2.026,-2.0262,-2.0259,-2.0258,-2.0258,-2.0258,-2.0257,0,-2.0188,-2.0188,-2.0209,-2.0214,-2.0215,-2.023,-2.0234,-2.0245,-2.0245,-2.0261,-2.0264,-2.0264,-2.0277,-2.0274,-2.0289,-2.0287,-2.031,-2.0307,-2.0308,-2.0306,-2.0322,-2.032,-2.0376,-2.0383,-2.0336,-2.0337,-2.0337,0,-2.0211,-2.0225,-2.0232,-2.024,-2.0244,-2.0256,-2.0264,-2.0261,-2.0268,-2.0277,-2.0288,-2.03,-2.0309,-2.0331,-2.0332,-2.0343,-2.0339,-2.0358,-2.034,-2.034,-2.0337,-2.0335,-2.0336,-2.036,-2.0361,-2.0361,-2.0362,0,-2.0252,-2.0252,-2.0263,-2.0274,-2.0283,-2.0292,-2.03,-2.0307,-2.0304,-2.0314,-2.0327,-2.0335,-2.035,-2.0362,-2.0373,-2.0376,-2.0368,-2.0368,-2.0372,-2.0372,-2.0371,-2.037,-2.0315,-2.0366,-2.0365,-2.0365,-2.0365,-2.0365,-2.0281,-2.0293,-2.03,-2.0312,-2.0318,-2.0326,-2.0337,-2.0339,-2.0351,-2.0363,-2.0361,-2.0376,-2.0383,-2.0397,-2.0401,-2.0413,-2.0405,-2.0412,-2.0413,-2.0414,-2.0415,-2.0371,-2.0415,-2.0415,-2.0415,-2.0415,-2.0414,0,-2.032,-2.0324,-2.0336,-2.0348,-2.0358,-2.0352,-2.0361,-2.037,-2.0383,-2.0391,-2.0401,-2.0416,-2.0429,-2.0432,-2.0444,-2.0452,-2.0449,-2.0455,-2.0453,-2.0454,-2.0421,-2.0416,-2.0458,-2.0458,-2.0458,-2.0458,-2.0458,-2.0458,-2.0341,-2.036,-2.0361,-2.0383,-2.0387,-2.0402,-2.0408,-2.0415,-2.0421,-2.0439,-2.045,-2.0452,-2.0458,-2.047,-2.0481,-2.0482,-2.0486,-2.0493,-2.0492,-2.0461,-2.0456,-2.0452,-2.0447,-2.0494,-2.0494,-2.0523,-2.0523,-2.0524]},{"header":{"parameterUnit":"m.s-1","parameterCategory":1,"la1":30.2991,"la2":30.254,"lo1":-89.0895,"lo2":-89.0444,"dy":0.0017,"dx":0.0017,"nx":28,"ny":28,"refTime":"2024-02-22T03:00:00:Z","depth":0,"parameterNumber":3,"parameterNumberName":"V-component_of_WINDS"},"data":[0,0,0,0,0,0,0,0,0,0,0,0,0,0,0,0,0,0,0,0,0,0,0,0,0,0,0,0,0,0,0,0,0,0,0,0,0,0,0,0,0,0,0,0,0,0,0,0,0,0,0,0,0,0,0,0,0,0,1.0342,1.0342,0,1.0309,1.0309,1.0309,1.0249,1.0248,1.0247,1.0246,1.021,1.021,1.021,0,0,0,0,0,0,0,0,0,0,0,0,0,1.0352,1.0352,1.0342,1.0342,1.0341,1.0309,1.0309,1.0308,1.0249,1.0248,1.0246,1.0245,1.021,1.021,1.021,0,0,0,0,0,0,0,0,0,0,0,0,0,1.0337,1.0353,1.0342,1.0308,1.0304,1.0309,1.0309,1.0308,1.0249,1.0248,1.0246,1.0244,1.021,1.021,1.021,1.0245,0,0,1.021,1.0211,0,0,0,0,0,0,0,0,1.0338,1.0336,1.0313,1.031,1.0306,1.0281,1.0299,1.0287,1.025,1.027,1.0245,1.0244,1.0235,1.0233,1.023,1.0243,1.0242,1.021,1.0211,1.0211,1.0211,0,0,0,0,0,0,0,1.0339,1.0337,1.0329,1.0313,1.0309,1.0294,1.029,1.0297,1.0262,1.0268,1.0264,1.0261,1.0233,1.023,1.0229,1.0241,1.021,1.0211,1.0211,1.0211,1.0285,1.0287,0,0,0,0,0,0,1.0345,1.0339,1.033,1.0328,1.0318,1.0295,1.029,1.0291,1.0262,1.0256,1.0262,1.0258,1.0231,1.0229,1.0228,1.0269,1.0211,1.0211,1.0211,1.0283,1.0286,1.0288,0,0,0,0,0,0,1.0345,1.0345,1.0331,1.0332,1.0329,1.0297,1.0298,1.0291,1.0289,1.0258,1.0251,1.0267,1.0229,1.0227,1.0242,1.0267,1.0211,1.0211,1.0281,1.0284,1.0287,1.0351,0,0,0,0,0,0,1.0346,1.0345,1.0358,1.0333,1.033,1.0347,1.0299,1.0292,1.029,1.0284,1.026,1.0254,1.0228,1.0242,1.0242,1.0266,1.0211,1.0279,1.0282,1.0286,1.0347,1.0356,1.0364,0,0,0,0,0,1.0347,1.0376,1.0359,1.0358,1.0345,1.0348,1.0346,1.0316,1.0292,1.0305,1.0285,1.0255,1.0264,1.0244,1.0244,1.0268,1.0277,1.0281,1.0285,1.0343,1.0354,1.0364,0,0,0,0,0,0,1.0403,1.0372,1.0353,1.0375,1.0365,1.0338,1.0353,1.0328,1.0324,1.0318,1.0281,1.0276,1.0296,1.0283,1.0262,1.0302,1.0266,1.027,1.031,1.032,1.0329,1.0332,1.0211,0,0,0,0,0,1.0419,1.0425,1.0397,1.0419,1.0415,1.0386,1.0386,1.0364,1.0351,1.0346,1.0327,1.0316,1.0317,1.0318,1.0316,1.0345,1.034,1.0362,1.037,1.0377,1.0382,1.0399,1.0409,1.0302,1.0302,1.0301,0,0,1.045,1.0434,1.0439,1.0431,1.042,1.0427,1.0382,1.039,1.0396,1.0347,1.0361,1.0347,1.0332,1.0355,1.0364,1.0345,1.0411,1.0383,1.0389,1.0389,1.0404,1.0415,1.0424,1.0304,1.0304,1.0303,0,0,1.0511,1.0499,1.0518,1.0509,1.0495,1.0475,1.048,1.0458,1.0447,1.0461,1.0426,1.0431,1.0432,1.0424,1.042,1.0482,1.0455,1.0482,1.0527,1.0544,1.0553,1.056,1.0584,1.0593,1.0487,1.0487,1.0487,0,1.0552,1.0562,1.0531,1.0543,1.0541,1.0499,1.0519,1.0511,1.0497,1.0497,1.0476,1.0479,1.0465,1.0487,1.0503,1.05,1.0505,1.0485,1.0554,1.0561,1.0568,1.059,1.06,1.049,1.049,1.049,1.0489,0,1.0614,1.0621,1.0638,1.0628,1.0627,1.0643,1.0615,1.0618,1.0598,1.0581,1.0596,1.0579,1.0575,1.0579,1.0557,1.0598,1.0588,1.0561,1.0524,1.0582,1.0603,1.0611,1.0496,1.0494,1.0493,1.0492,0,0,1.0708,1.0683,1.069,1.0686,1.0668,1.0673,1.0688,1.0686,1.0691,1.0682,1.0695,1.0699,1.0675,1.0671,1.0648,1.0663,1.0717,1.0635,1.0634,1.0653,1.0764,1.0786,1.0796,1.0699,1.07,1.0701,1.0766,0,1.0766,1.0791,1.0765,1.0795,1.0803,1.0765,1.0778,1.077,1.0755,1.0759,1.0742,1.0747,1.0714,1.0712,1.0725,1.0708,1.0739,1.0702,1.0711,1.0711,1.0717,1.0807,1.0828,1.089,1.0774,1.0775,1.0776,0,1.0837,1.0835,1.0867,1.0851,1.0853,1.0866,1.0863,1.0868,1.0858,1.0846,1.0843,1.0817,1.0831,1.0795,1.0815,1.0791,1.0793,1.0786,1.0787,1.0788,1.0748,1.0811,1.0909,1.0919,1.0788,1.0788,1.0787,0,1.0906,1.0911,1.0931,1.0929,1.091,1.092,1.0912,1.0901,1.0902,1.09,1.0901,1.0899,1.0899,1.0899,1.0874,1.085,1.0898,1.0859,1.089,1.0891,1.0902,1.0902,1.1004,1.0902,1.0901,1.0901,1.0901,0,1.0974,1.0995,1.0962,1.0975,1.0999,1.0969,1.0993,1.0981,1.0972,1.0982,1.0949,1.0959,1.0925,1.0932,1.0912,1.0933,1.0933,1.0925,1.0919,1.0929,1.093,1.093,1.0926,1.0904,1.0903,1.0903,1.0902,0,1.1054,1.1033,1.1053,1.1035,1.1031,1.1049,1.1034,1.1045,1.1029,1.1043,1.1044,1.1019,1.1026,1.1002,1.1003,1.099,1.1023,1.1009,1.1027,1.1023,1.1056,1.1054,1.1162,1.1176,1.1064,1.1065,1.1066,0,1.11,1.1116,1.1101,1.1106,1.1101,1.111,1.1112,1.1084,1.1088,1.108,1.1093,1.1097,1.1099,1.1112,1.1094,1.1097,1.1084,1.1122,1.1084,1.1094,1.1087,1.1087,1.109,1.113,1.1132,1.1133,1.1134,0,1.1184,1.1174,1.1179,1.1182,1.1186,1.1186,1.1183,1.119,1.116,1.1166,1.1174,1.1176,1.118,1.1185,1.1184,1.1176,1.1151,1.1146,1.1153,1.1163,1.1174,1.1171,1.105,1.1143,1.1142,1.1142,1.1141,1.1141,1.125,1.1264,1.1256,1.1264,1.126,1.126,1.1271,1.1258,1.1264,1.1266,1.1249,1.1261,1.1253,1.125,1.1245,1.1254,1.1237,1.1247,1.125,1.1254,1.126,1.1172,1.1254,1.1253,1.1253,1.1253,1.1253,0,1.1334,1.1329,1.1336,1.1336,1.1342,1.1319,1.1316,1.1323,1.1335,1.133,1.1334,1.1345,1.1351,1.1335,1.1339,1.135,1.1338,1.1352,1.1351,1.1351,1.1275,1.1269,1.1361,1.1361,1.1361,1.1361,1.1361,1.1361,1.1379,1.1403,1.1392,1.1414,1.1407,1.142,1.1421,1.1421,1.1418,1.1432,1.1437,1.1427,1.1419,1.1423,1.1428,1.1423,1.1427,1.1445,1.1437,1.1366,1.1355,1.1345,1.134,1.1446,1.1446,1.1512,1.1512,1.1513]}]]